sat.trackr.live / text

‹ back to catalog

STARLINK-11719 [DTC]

NORAD 64071 · 2025-107H

PAYLOAD ACTIVE UNKNOWN

§ Identity

Operator
Country
US
Launch date
2025-05-21
Launch site
AFETR
Launch vehicle
Mass (kg)
RCS (m²)

Purposes: comms

External: N2YO · Heavens-Above · Gunter

§ Orbital elements

Epoch: 2026-09-20T13:43:19.573248Z

Period
91.67 min
Inclination
42.9999°
Eccentricity
0.0000951
Mean motion
15.70860988 rev/d
Perigee alt
355.8 km
Apogee alt
357.1 km
Semi-major
6,734.6 km
B*
1.3336e-3
RAAN
3.9291°
Arg perigee
235.7352°
Mean anomaly
124.3426°
Rev number
7,794

§ Raw data

STARLINK-11719 [DTC]1 64071U 25107H   26263.57175432  .00174462  00000+0  13336-2 0  99972 64071  42.9999   3.9291 0000951 235.7352 124.3426 15.70860988 77949

JSON: /api/v1/satellites/64071 · /tle

For live sub-satellite position, see the globe view (requires WebGL).

§ Visibility from observer

Set your observer location to see the next 7 days of passes ≥ 10°. The values pass through the URL so the page stays shareable.

No JS? Fill the form by hand. The geolocation button needs JavaScript.